,,,PA_Meas_PMT16A,,PR_Meas_QMR101_102,,RH_Meas_QMH101,,SR_Meas_QMS101,,TA_Meas_QMH101,,GenWind,,GenWind,
date,time,status,PA,status,PR,status,RH,status,SR,status,TA,status,DirAvg,status,SpdAvg,
2012-02-18, 00:00:04,VALID,1000.36,VALID,0,VALID,89.3123,VALID,0,VALID,23.797,VALID,201,VALID,0.756641,
2012-02-18, 00:01:04,VALID,1000.36,VALID,0,VALID,89.0453,VALID,0,VALID,23.797,VALID,209,VALID,0.305859,
2012-02-18, 00:02:04,VALID,1000.34,VALID,0,VALID,89.1368,VALID,0,VALID,23.797,VALID,209,VALID,0.245312,
2012-02-18, 00:03:04,VALID,1000.3,VALID,0,VALID,89.3047,VALID,0,VALID,23.7988,VALID,209,VALID,0,
2012-02-18, 00:04:04,VALID,1000.29,VALID,0,VALID,89.381,VALID,0,VALID,23.7793,VALID,209,VALID,0,
2012-02-18, 00:05:04,VALID,1000.24,VALID,0,VALID,89.3886,VALID,0,VALID,23.7402,VALID,209,VALID,0,
2012-02-18, 00:06:04,VALID,1000.26,VALID,0,VALID,89.5031,VALID,0,VALID,23.7384,VALID,206,VALID,0,
2012-02-18, 00:07:04,VALID,1000.22,VALID,0,VALID,89.6938,VALID,0,VALID,23.7402,VALID,206,VALID,0,
2012-02-18, 00:08:04,VALID,1000.19,VALID,0,VALID,89.6709,VALID,0,VALID,23.7402,VALID,206,VALID,0,
2012-02-18, 00:09:04,VALID,1000.19,VALID,0,VALID,89.7014,VALID,0,VALID,23.7402,VALID,206,VALID,0,
2012-02-18, 00:10:04,VALID,1000.17,VALID,0,VALID,89.793,VALID,0,VALID,23.7207,VALID,206,VALID,0,
2012-02-18, 00:11:04,VALID,1000.18,VALID,0,VALID,89.7472,VALID,0,VALID,23.7012,VALID,206,VALID,0,
2012-02-18, 00:12:04,VALID,1000.16,VALID,0,VALID,89.7472,VALID,0,VALID,23.6817,VALID,206,VALID,0,
2012-02-18, 00:13:04,VALID,1000.13,VALID,0,VALID,89.8159,VALID,0,VALID,23.6604,VALID,206,VALID,0,
2012-02-18, 00:14:04,VALID,1000.1,VALID,0,VALID,89.7014,VALID,0,VALID,23.6214,VALID,206,VALID,0,
2012-02-18, 00:15:04,VALID,1000.08,VALID,0,VALID,89.732,VALID,0,VALID,23.6232,VALID,206,VALID,0,
2012-02-18, 00:16:04,VALID,1000.07,VALID,0,VALID,89.7549,VALID,0,VALID,23.6019,VALID,206,VALID,0,
2012-02-18, 00:17:04,VALID,1000.04,VALID,0,VALID,89.6175,VALID,0,VALID,23.6036,VALID,206,VALID,0,
2012-02-18, 00:18:04,VALID,1000.02,VALID,0,VALID,89.6251,VALID,0,VALID,23.6036,VALID,206,VALID,0,
2012-02-18, 00:19:04,VALID,1000.01,VALID,0,VALID,89.6786,VALID,0,VALID,23.6036,VALID,206,VALID,0,
2012-02-18, 00:20:04,VALID,999.972,VALID,0,VALID,89.648,VALID,0,VALID,23.5841,VALID,206,VALID,0,
2012-02-18, 00:21:04,VALID,999.935,VALID,0,VALID,89.5412,VALID,0,VALID,23.5628,VALID,129,VALID,0.199219,
2012-02-18, 00:22:04,VALID,999.889,VALID,0,VALID,89.7854,VALID,0,VALID,23.6036,VALID,90,VALID,0.805469,
2012-02-18, 00:23:04,VALID,999.908,VALID,0,VALID,89.6175,VALID,0,VALID,23.6232,VALID,85,VALID,0.78125,
2012-02-18, 00:24:04,VALID,999.894,VALID,0,VALID,89.2894,VALID,0,VALID,23.6214,VALID,83,VALID,1.06523,
2012-02-18, 00:25:04,VALID,999.848,VALID,0,VALID,89.4039,VALID,0,VALID,23.6409,VALID,72,VALID,0.602344,
2012-02-18, 00:26:04,VALID,999.848,VALID,0,VALID,89.4878,VALID,0,VALID,23.6604,VALID,328,VALID,0.775,
2012-02-18, 00:27:04,VALID,999.83,VALID,0,VALID,89.6175,VALID,0,VALID,23.7012,VALID,328,VALID,0.646484,
2012-02-18, 00:28:04,VALID,999.825,VALID,0,VALID,89.7625,VALID,0,VALID,23.7012,VALID,328,VALID,0.7125,
2012-02-18, 00:29:04,VALID,999.782,VALID,0,VALID,89.526,VALID,0,VALID,23.6817,VALID,1,VALID,0.9,
2012-02-18, 00:30:04,VALID,999.735,VALID,0,VALID,88.7172,VALID,0,VALID,23.6817,VALID,41,VALID,0.660547,
2012-02-18, 00:31:04,VALID,999.719,VALID,0,VALID,88.6333,VALID,0,VALID,23.6799,VALID,68,VALID,0.578516,
2012-02-18, 00:32:04,VALID,999.704,VALID,0,VALID,89.1216,VALID,0,VALID,23.7207,VALID,65,VALID,1.04023,
2012-02-18, 00:33:04,VALID,999.68,VALID,0,VALID,89.4268,VALID,0,VALID,23.6994,VALID,63,VALID,0.804297,
2012-02-18, 00:34:04,VALID,999.688,VALID,0,VALID,89.732,VALID,0,VALID,23.7207,VALID,63,VALID,0.274609,
2012-02-18, 00:35:04,VALID,999.683,VALID,0,VALID,89.938,VALID,0,VALID,23.7012,VALID,63,VALID,0.416406,
2012-02-18, 00:36:04,VALID,999.684,VALID,0,VALID,90.3805,VALID,0,VALID,23.7207,VALID,54,VALID,1.72227,
2012-02-18, 00:37:04,VALID,999.648,VALID,0,VALID,90.884,VALID,0,VALID,23.7207,VALID,67,VALID,1.46094,
2012-02-18, 00:38:04,VALID,999.66,VALID,0,VALID,91.1587,VALID,0,VALID,23.7402,VALID,80,VALID,1.68008,
2012-02-18, 00:39:04,VALID,999.646,VALID,0,VALID,91.2731,VALID,0,VALID,23.7402,VALID,81,VALID,1.5207,
2012-02-18, 00:40:04,VALID,999.639,VALID,0,VALID,91.2121,VALID,0,VALID,23.7207,VALID,75,VALID,1.36992,
2012-02-18, 00:41:04,VALID,999.599,VALID,0,VALID,91.1053,VALID,0,VALID,23.7012,VALID,73,VALID,1.32969,
2012-02-18, 00:42:04,VALID,999.56,VALID,0,VALID,91.1892,VALID,0,VALID,23.7012,VALID,76,VALID,0.946484,
2012-02-18, 00:43:04,VALID,999.566,VALID,0,VALID,91.1968,VALID,0,VALID,23.6799,VALID,92,VALID,0.446875,
2012-02-18, 00:44:04,VALID,999.569,VALID,0,VALID,91.1206,VALID,0,VALID,23.6817,VALID,95,VALID,0.739453,
2012-02-18, 00:45:04,VALID,999.579,VALID,0,VALID,91.1816,VALID,0,VALID,23.6214,VALID,92,VALID,0.548047,
2012-02-18, 00:46:04,VALID,999.562,VALID,0,VALID,91.3113,VALID,0,VALID,23.6232,VALID,81,VALID,0.705859,
2012-02-18, 00:47:04,VALID,999.562,VALID,0,VALID,91.0137,VALID,0,VALID,23.5823,VALID,46,VALID,1.00352,
2012-02-18, 00:48:04,VALID,999.527,VALID,0,VALID,90.9832,VALID,0,VALID,23.5841,VALID,54,VALID,1.20195,
2012-02-18, 00:49:04,VALID,999.466,VALID,0,VALID,90.9527,VALID,0,VALID,23.5628,VALID,55,VALID,1.14727,
2012-02-18, 00:50:04,VALID,999.478,VALID,0,VALID,91.029,VALID,0,VALID,23.5823,VALID,55,VALID,0.792578,
2012-02-18, 00:51:04,VALID,999.435,VALID,0,VALID,91.0748,VALID,0,VALID,23.5823,VALID,55,VALID,0.557031,
2012-02-18, 00:52:04,VALID,999.419,VALID,0,VALID,91.174,VALID,0.104696,VALID,23.5823,VALID,55,VALID,0.305859,
2012-02-18, 00:53:04,VALID,999.363,VALID,0,VALID,91.2503,VALID,0,VALID,23.6036,VALID,55,VALID,0.482422,
2012-02-18, 00:54:04,VALID,999.368,VALID,0,VALID,91.3342,VALID,0,VALID,23.6036,VALID,56,VALID,0.553125,
2012-02-18, 00:55:04,VALID,999.339,VALID,0,VALID,91.3494,VALID,0,VALID,23.5628,VALID,78,VALID,0.524219,
2012-02-18, 00:56:04,VALID,999.306,VALID,0,VALID,91.4028,VALID,0,VALID,23.5628,VALID,89,VALID,0.431641,
2012-02-18, 00:57:04,VALID,999.298,VALID,0,VALID,91.38,VALID,0,VALID,23.5238,VALID,106,VALID,0.715234,
2012-02-18, 00:58:04,VALID,999.259,VALID,0,VALID,91.38,VALID,0,VALID,23.5451,VALID,109,VALID,1.16562,
2012-02-18, 00:59:04,VALID,999.246,VALID,0,VALID,91.4715,VALID,0,VALID,23.5043,VALID,117,VALID,1.19023,
2012-02-18, 01:00:04,VALID,999.203,VALID,0,VALID,91.5478,VALID,0,VALID,23.5043,VALID,117,VALID,1.00508,
2012-02-18, 01:01:04,VALID,999.211,VALID,0,VALID,91.5631,VALID,0,VALID,23.5043,VALID,120,VALID,0.598437,
2012-02-18, 01:02:04,VALID,999.192,VALID,0,VALID,91.6241,VALID,0,VALID,23.5043,VALID,112,VALID,0.812109,
2012-02-18, 01:03:04,VALID,999.16,VALID,0,VALID,91.6851,VALID,0,VALID,23.4848,VALID,113,VALID,1.17227,
2012-02-18, 01:04:04,VALID,999.158,VALID,0,VALID,91.7385,VALID,0,VALID,23.4848,VALID,112,VALID,1.13516,
2012-02-18, 01:05:04,VALID,999.128,VALID,0,VALID,91.7462,VALID,0,VALID,23.5043,VALID,112,VALID,1.02773,
2012-02-18, 01:06:04,VALID,999.12,VALID,0,VALID,91.9064,VALID,0.104696,VALID,23.5043,VALID,106,VALID,1.16719,
2012-02-18, 01:07:04,VALID,999.105,VALID,0,VALID,92.0971,VALID,0,VALID,23.5043,VALID,105,VALID,1.13906,
2012-02-18, 01:08:04,VALID,999.137,VALID,0,VALID,92.2726,VALID,0,VALID,23.5451,VALID,96,VALID,0.789453,
2012-02-18, 01:09:04,VALID,999.119,VALID,0,VALID,92.326,VALID,0,VALID,23.5451,VALID,96,VALID,0.528516,
2012-02-18, 01:10:04,VALID,999.077,VALID,0,VALID,92.3184,VALID,0,VALID,23.5451,VALID,96,VALID,0.343359,
2012-02-18, 01:11:04,VALID,999.039,VALID,0,VALID,92.3108,VALID,0,VALID,23.5043,VALID,96,VALID,0.254687,
2012-02-18, 01:12:04,VALID,999.029,VALID,0,VALID,92.3184,VALID,0,VALID,23.5061,VALID,96,VALID,0,
2012-02-18, 01:13:04,VALID,999.004,VALID,0,VALID,92.2955,VALID,0,VALID,23.5061,VALID,96,VALID,0,
2012-02-18, 01:14:04,VALID,998.952,VALID,0,VALID,92.3489,VALID,0,VALID,23.4866,VALID,335,VALID,0.780859,
2012-02-18, 01:15:04,VALID,998.929,VALID,0,VALID,92.41,VALID,0,VALID,23.4458,VALID,324,VALID,0.410937,
2012-02-18, 01:16:04,VALID,998.872,VALID,0,VALID,92.4023,VALID,0,VALID,23.4263,VALID,324,VALID,0.158203,
2012-02-18, 01:17:04,VALID,998.872,VALID,0,VALID,92.3642,VALID,0,VALID,23.4263,VALID,324,VALID,0,
2012-02-18, 01:18:04,VALID,998.851,VALID,0,VALID,92.3489,VALID,0,VALID,23.4067,VALID,324,VALID,0,
2012-02-18, 01:19:04,VALID,998.843,VALID,0,VALID,92.4176,VALID,0,VALID,23.4067,VALID,324,VALID,0.358594,
2012-02-18, 01:20:04,VALID,998.826,VALID,0,VALID,92.5244,VALID,0,VALID,23.3872,VALID,324,VALID,0.760938,
2012-02-18, 01:21:04,VALID,998.774,VALID,0,VALID,92.5931,VALID,0,VALID,23.3872,VALID,325,VALID,0.285156,
2012-02-18, 01:22:04,VALID,998.758,VALID,0,VALID,92.6312,VALID,0,VALID,23.3872,VALID,338,VALID,0.612109,
2012-02-18, 01:23:04,VALID,998.709,VALID,0,VALID,92.6541,VALID,0,VALID,23.3677,VALID,5,VALID,0.757813,
2012-02-18, 01:24:04,VALID,998.738,VALID,0,VALID,92.6007,VALID,0,VALID,23.3677,VALID,5,VALID,0.909375,
2012-02-18, 01:25:04,VALID,998.726,VALID,0,VALID,92.6312,VALID,0.104696,VALID,23.3677,VALID,5,VALID,0.657812,
2012-02-18, 01:26:04,VALID,998.716,VALID,0,VALID,92.6617,VALID,0,VALID,23.3677,VALID,5,VALID,0.646875,
2012-02-18, 01:27:04,VALID,998.702,VALID,0,VALID,92.7228,VALID,0,VALID,23.3482,VALID,19,VALID,0.927734,
2012-02-18, 01:28:04,VALID,998.683,VALID,0,VALID,92.7762,VALID,0,VALID,23.3482,VALID,19,VALID,0.678906,
2012-02-18, 01:29:04,VALID,998.689,VALID,0,VALID,92.8067,VALID,0,VALID,23.3695,VALID,19,VALID,0.292578,
2012-02-18, 01:30:04,VALID,998.665,VALID,0,VALID,92.7838,VALID,0.104696,VALID,23.3482,VALID,19,VALID,0,
2012-02-18, 01:31:04,VALID,998.645,VALID,0,VALID,92.7533,VALID,0,VALID,23.3482,VALID,19,VALID,0,
2012-02-18, 01:32:04,VALID,998.628,VALID,0,VALID,92.738,VALID,0,VALID,23.3287,VALID,19,VALID,0,
2012-02-18, 01:33:04,VALID,998.642,VALID,0,VALID,92.7685,VALID,0,VALID,23.35,VALID,19,VALID,0,
2012-02-18, 01:34:04,VALID,998.633,VALID,0,VALID,92.7685,VALID,0.104696,VALID,23.35,VALID,19,VALID,0,
2012-02-18, 01:35:04,VALID,998.611,VALID,0,VALID,92.822,VALID,0.104696,VALID,23.3287,VALID,90,VALID,1.27461,
2012-02-18, 01:36:04,VALID,998.578,VALID,0,VALID,92.8601,VALID,0,VALID,23.3287,VALID,89,VALID,1.23398,
2012-02-18, 01:37:04,VALID,998.605,VALID,0,VALID,92.9135,VALID,0.104696,VALID,23.3287,VALID,91,VALID,1.35078,
2012-02-18, 01:38:04,VALID,998.57,VALID,0,VALID,92.944,VALID,0,VALID,23.3287,VALID,101,VALID,1.10352,
2012-02-18, 01:39:04,VALID,998.557,VALID,0,VALID,92.9364,VALID,0,VALID,23.3287,VALID,113,VALID,0.797656,
2012-02-18, 01:40:04,VALID,998.559,VALID,0,VALID,92.8983,VALID,0.104696,VALID,23.3287,VALID,115,VALID,0.835547,
2012-02-18, 01:41:04,VALID,998.535,VALID,0,VALID,92.822,VALID,0,VALID,23.3092,VALID,113,VALID,0.496484,
2012-02-18, 01:42:04,VALID,998.523,VALID,0,VALID,92.7685,VALID,0,VALID,23.3092,VALID,98,VALID,0.460547,
2012-02-18, 01:43:04,VALID,998.489,VALID,0,VALID,92.7304,VALID,0.104696,VALID,23.2897,VALID,98,VALID,0,
2012-02-18, 01:44:04,VALID,998.457,VALID,0,VALID,92.6999,VALID,0,VALID,23.2915,VALID,98,VALID,0,
2012-02-18, 01:45:04,VALID,998.448,VALID,0,VALID,92.6923,VALID,0,VALID,23.2702,VALID,66,VALID,0,
2012-02-18, 01:46:04,VALID,998.398,VALID,0,VALID,92.6083,VALID,0,VALID,23.2702,VALID,65,VALID,0,
2012-02-18, 01:47:04,VALID,998.422,VALID,0,VALID,92.3947,VALID,0,VALID,23.2702,VALID,65,VALID,1.08203,
2012-02-18, 01:48:04,VALID,998.379,VALID,0,VALID,92.3794,VALID,0.104696,VALID,23.311,VALID,45,VALID,1.10977,
2012-02-18, 01:49:04,VALID,998.398,VALID,0,VALID,92.4939,VALID,0,VALID,23.2897,VALID,20,VALID,1.15508,
2012-02-18, 01:50:04,VALID,998.419,VALID,0,VALID,92.6846,VALID,0,VALID,23.2897,VALID,5,VALID,1.07383,
2012-02-18, 01:51:04,VALID,998.352,VALID,0,VALID,92.8143,VALID,0,VALID,23.311,VALID,5,VALID,0.622656,
2012-02-18, 01:52:04,VALID,998.32,VALID,0,VALID,92.883,VALID,0,VALID,23.311,VALID,46,VALID,1.02227,
2012-02-18, 01:53:04,VALID,998.342,VALID,0,VALID,92.9135,VALID,0,VALID,23.2897,VALID,326,VALID,0.930859,
2012-02-18, 01:54:04,VALID,998.304,VALID,0,VALID,92.9211,VALID,0,VALID,23.2897,VALID,233,VALID,0.269531,
2012-02-18, 01:55:04,VALID,998.294,VALID,0,VALID,92.8906,VALID,0,VALID,23.311,VALID,53,VALID,1.63008,
2012-02-18, 01:56:04,VALID,998.305,VALID,0,VALID,92.2345,VALID,0,VALID,23.2897,VALID,355,VALID,0.894531,
2012-02-18, 01:57:04,VALID,998.268,VALID,0,VALID,92.0895,VALID,0,VALID,23.3287,VALID,2,VALID,1.11953,
2012-02-18, 01:58:04,VALID,998.242,VALID,0,VALID,92.1963,VALID,0,VALID,23.35,VALID,7,VALID,1.3875,
2012-02-18, 01:59:04,VALID,998.261,VALID,0,VALID,92.3794,VALID,0,VALID,23.3287,VALID,13,VALID,1.90781,
2012-02-18, 02:00:04,VALID,998.234,VALID,0,VALID,92.4634,VALID,0,VALID,23.35,VALID,22,VALID,1.41445,
2012-02-18, 02:01:04,VALID,998.215,VALID,0,VALID,92.5778,VALID,0,VALID,23.3287,VALID,47,VALID,1.17969,
2012-02-18, 02:02:04,VALID,998.207,VALID,0,VALID,92.5473,VALID,0,VALID,23.35,VALID,358,VALID,1.18086,
2012-02-18, 02:03:04,VALID,998.171,VALID,0,VALID,92.3642,VALID,0,VALID,23.3287,VALID,23,VALID,2.29844,
2012-02-18, 02:04:04,VALID,998.161,VALID,0,VALID,92.471,VALID,0,VALID,23.35,VALID,34,VALID,1.81641,
2012-02-18, 02:05:04,VALID,998.13,VALID,0,VALID,92.5397,VALID,0,VALID,23.3305,VALID,39,VALID,1.16484,
2012-02-18, 02:06:04,VALID,998.132,VALID,0,VALID,92.6007,VALID,0,VALID,23.311,VALID,344,VALID,1.48125,
2012-02-18, 02:07:04,VALID,998.12,VALID,0,VALID,92.5244,VALID,0,VALID,23.2915,VALID,4,VALID,1.54141,
2012-02-18, 02:08:04,VALID,998.104,VALID,0,VALID,92.4939,VALID,0,VALID,23.311,VALID,20,VALID,1.5543,
2012-02-18, 02:09:04,VALID,998.086,VALID,0,VALID,92.5091,VALID,0,VALID,23.2915,VALID,27,VALID,1.74727,
2012-02-18, 02:10:04,VALID,998.068,VALID,0,VALID,92.1506,VALID,0,VALID,23.2915,VALID,46,VALID,1.20625,
2012-02-18, 02:11:04,VALID,998.047,VALID,0,VALID,92.0209,VALID,0,VALID,23.3518,VALID,37,VALID,1.18047,
2012-02-18, 02:12:04,VALID,998.032,VALID,0,VALID,91.9522,VALID,0,VALID,23.3518,VALID,24,VALID,1.2668,
2012-02-18, 02:13:04,VALID,998.051,VALID,0,VALID,92.0285,VALID,0,VALID,23.3305,VALID,17,VALID,0.801953,
2012-02-18, 02:14:04,VALID,998.022,VALID,0,VALID,92.059,VALID,0,VALID,23.3305,VALID,39,VALID,1.1375,
2012-02-18, 02:15:04,VALID,998.01,VALID,0,VALID,92.0895,VALID,0,VALID,23.311,VALID,347,VALID,0.831641,
2012-02-18, 02:16:04,VALID,998.009,VALID,0,VALID,92.0743,VALID,0,VALID,23.311,VALID,61,VALID,1.12109,
2012-02-18, 02:17:04,VALID,998.016,VALID,0,VALID,91.9827,VALID,0,VALID,23.2915,VALID,356,VALID,1.07383,
2012-02-18, 02:18:04,VALID,998.03,VALID,0,VALID,91.8683,VALID,0,VALID,23.3305,VALID,347,VALID,0.678125,
2012-02-18, 02:19:04,VALID,998.041,VALID,0,VALID,91.8683,VALID,0,VALID,23.3695,VALID,6,VALID,1.51484,
2012-02-18, 02:20:04,VALID,998.018,VALID,0,VALID,91.8606,VALID,0,VALID,23.3482,VALID,33,VALID,1.13281,
2012-02-18, 02:21:04,VALID,998.022,VALID,0,VALID,92.0514,VALID,0,VALID,23.3482,VALID,48,VALID,1.06875,
2012-02-18, 02:22:04,VALID,998.042,VALID,0,VALID,92.1277,VALID,0,VALID,23.389,VALID,47,VALID,0.478906,
2012-02-18, 02:23:04,VALID,998.015,VALID,0,VALID,91.9064,VALID,0,VALID,23.3695,VALID,28,VALID,1.43164,
2012-02-18, 02:24:04,VALID,998.025,VALID,0,VALID,90.9222,VALID,0,VALID,23.3872,VALID,349,VALID,1.37734,
2012-02-18, 02:25:04,VALID,998.034,VALID,0,VALID,90.8383,VALID,0,VALID,23.4671,VALID,47,VALID,0.907812,
2012-02-18, 02:26:04,VALID,998.012,VALID,0,VALID,90.9832,VALID,0,VALID,23.4653,VALID,28,VALID,0.895703,
2012-02-18, 02:27:04,VALID,998.008,VALID,0,VALID,91.1358,VALID,0,VALID,23.4671,VALID,297,VALID,0.719922,
2012-02-18, 02:28:04,VALID,998.009,VALID,0,VALID,91.1511,VALID,0.104696,VALID,23.4263,VALID,321,VALID,0.822656,
2012-02-18, 02:29:04,VALID,998.008,VALID,0,VALID,91.3189,VALID,0,VALID,23.4475,VALID,8,VALID,1.1,
2012-02-18, 02:30:04,VALID,997.985,VALID,0,VALID,91.3647,VALID,0,VALID,23.4067,VALID,37,VALID,0.961719,
2012-02-18, 02:31:04,VALID,997.957,VALID,0,VALID,91.2426,VALID,0,VALID,23.3872,VALID,63,VALID,0.897266,
2012-02-18, 02:32:04,VALID,997.962,VALID,0,VALID,91.1892,VALID,0,VALID,23.3872,VALID,63,VALID,0.401563,
2012-02-18, 02:33:04,VALID,997.982,VALID,0,VALID,91.2655,VALID,0,VALID,23.389,VALID,63,VALID,0,
2012-02-18, 02:34:04,VALID,997.975,VALID,0,VALID,91.3494,VALID,0,VALID,23.3677,VALID,63,VALID,0,
2012-02-18, 02:35:04,VALID,997.968,VALID,0,VALID,91.4563,VALID,0,VALID,23.3677,VALID,63,VALID,0,
2012-02-18, 02:36:04,VALID,997.95,VALID,0,VALID,91.5097,VALID,0,VALID,23.3695,VALID,63,VALID,0,
2012-02-18, 02:37:04,VALID,997.975,VALID,0,VALID,91.586,VALID,0,VALID,23.3482,VALID,63,VALID,0,
2012-02-18, 02:38:04,VALID,997.977,VALID,0,VALID,91.6165,VALID,0,VALID,23.3677,VALID,46,VALID,0.637109,
2012-02-18, 02:39:04,VALID,997.971,VALID,0,VALID,91.7233,VALID,0,VALID,23.3695,VALID,46,VALID,0.0289063,
2012-02-18, 02:40:04,VALID,997.992,VALID,0,VALID,91.7538,VALID,0,VALID,23.3695,VALID,26,VALID,0,
2012-02-18, 02:41:04,VALID,997.967,VALID,0,VALID,91.7996,VALID,0,VALID,23.3482,VALID,26,VALID,0,
2012-02-18, 02:42:04,VALID,997.995,VALID,0,VALID,91.8759,VALID,0,VALID,23.3695,VALID,26,VALID,0,
2012-02-18, 02:43:04,VALID,998.033,VALID,0,VALID,91.9827,VALID,0,VALID,23.3695,VALID,26,VALID,0,
2012-02-18, 02:44:04,VALID,998.053,VALID,0,VALID,91.9751,VALID,0,VALID,23.35,VALID,26,VALID,0,
2012-02-18, 02:45:04,VALID,998.079,VALID,0,VALID,92.0209,VALID,0,VALID,23.35,VALID,26,VALID,0,
2012-02-18, 02:46:04,VALID,998.076,VALID,0,VALID,92.0514,VALID,0,VALID,23.35,VALID,26,VALID,0,
2012-02-18, 02:47:04,VALID,998.076,VALID,0,VALID,92.1048,VALID,0,VALID,23.3092,VALID,26,VALID,0,
2012-02-18, 02:48:04,VALID,998.097,VALID,0,VALID,92.1811,VALID,0,VALID,23.3305,VALID,26,VALID,0,
2012-02-18, 02:49:04,VALID,998.103,VALID,0,VALID,92.2192,VALID,0,VALID,23.2897,VALID,82,VALID,0,
2012-02-18, 02:50:04,VALID,998.143,VALID,0,VALID,92.2574,VALID,0,VALID,23.3092,VALID,83,VALID,0.911328,
2012-02-18, 02:51:04,VALID,998.11,VALID,0,VALID,92.2345,VALID,0,VALID,23.2897,VALID,78,VALID,1.1707,
2012-02-18, 02:52:04,VALID,998.133,VALID,0,VALID,92.2421,VALID,0,VALID,23.3092,VALID,81,VALID,1.04492,
2012-02-18, 02:53:04,VALID,998.153,VALID,0,VALID,92.2574,VALID,0,VALID,23.3305,VALID,89,VALID,0.809375,
2012-02-18, 02:54:04,VALID,998.165,VALID,0,VALID,92.2116,VALID,0,VALID,23.3092,VALID,78,VALID,0.930469,
2012-02-18, 02:55:04,VALID,998.169,VALID,0,VALID,92.1353,VALID,0,VALID,23.3305,VALID,83,VALID,1.08711,
2012-02-18, 02:56:04,VALID,998.167,VALID,0,VALID,92.1658,VALID,0,VALID,23.3287,VALID,87,VALID,1.49414,
2012-02-18, 02:57:04,VALID,998.143,VALID,0,VALID,92.1811,VALID,0,VALID,23.3092,VALID,87,VALID,0.745313,
2012-02-18, 02:58:04,VALID,998.159,VALID,0,VALID,92.2421,VALID,0,VALID,23.3305,VALID,93,VALID,0.964453,
2012-02-18, 02:59:04,VALID,998.157,VALID,0,VALID,92.265,VALID,0,VALID,23.3305,VALID,89,VALID,1.46211,
2012-02-18, 03:00:04,VALID,998.19,VALID,0,VALID,92.3642,VALID,0,VALID,23.3305,VALID,87,VALID,1.34141,
2012-02-18, 03:01:04,VALID,998.154,VALID,0,VALID,92.3642,VALID,0,VALID,23.3092,VALID,79,VALID,1.13242,
2012-02-18, 03:02:04,VALID,998.146,VALID,0,VALID,92.2955,VALID,0,VALID,23.311,VALID,67,VALID,1.35938,
2012-02-18, 03:03:04,VALID,998.107,VALID,0,VALID,92.0361,VALID,0,VALID,23.2897,VALID,66,VALID,1.76172,
2012-02-18, 03:04:04,VALID,998.103,VALID,0,VALID,91.6165,VALID,0,VALID,23.311,VALID,63,VALID,1.00625,
2012-02-18, 03:05:04,VALID,998.121,VALID,0,VALID,91.5326,VALID,0,VALID,23.35,VALID,41,VALID,0.600781,
2012-02-18, 03:06:04,VALID,998.096,VALID,0,VALID,91.4868,VALID,0,VALID,23.3287,VALID,42,VALID,0.3,
2012-02-18, 03:07:04,VALID,998.084,VALID,0,VALID,91.4868,VALID,0,VALID,23.3305,VALID,42,VALID,0.282031,
2012-02-18, 03:08:04,VALID,998.098,VALID,0,VALID,91.5554,VALID,0,VALID,23.3305,VALID,42,VALID,0,
2012-02-18, 03:09:04,VALID,998.104,VALID,0,VALID,91.6012,VALID,0,VALID,23.311,VALID,42,VALID,0.00546875,
2012-02-18, 03:10:04,VALID,998.139,VALID,0,VALID,91.7538,VALID,0,VALID,23.2915,VALID,42,VALID,0.387109,
2012-02-18, 03:11:04,VALID,998.174,VALID,0,VALID,91.8606,VALID,0,VALID,23.2915,VALID,7,VALID,0.555469,
2012-02-18, 03:12:04,VALID,998.138,VALID,0,VALID,91.853,VALID,0,VALID,23.2915,VALID,6,VALID,0.275,
2012-02-18, 03:13:04,VALID,998.155,VALID,0,VALID,91.8454,VALID,0,VALID,23.2719,VALID,6,VALID,0,
2012-02-18, 03:14:04,VALID,998.182,VALID,0,VALID,91.8377,VALID,0,VALID,23.2507,VALID,6,VALID,0,
2012-02-18, 03:15:04,VALID,998.235,VALID,0,VALID,91.853,VALID,0,VALID,23.2507,VALID,84,VALID,0.526563,
2012-02-18, 03:16:04,VALID,998.227,VALID,0,VALID,91.7691,VALID,0,VALID,23.2524,VALID,99,VALID,0.430078,
2012-02-18, 03:17:04,VALID,998.27,VALID,0,VALID,91.6775,VALID,0,VALID,23.2524,VALID,135,VALID,1.14727,
2012-02-18, 03:18:04,VALID,998.286,VALID,0,VALID,91.441,VALID,0,VALID,23.2507,VALID,130,VALID,0.722656,
2012-02-18, 03:19:04,VALID,998.294,VALID,0,VALID,91.3647,VALID,0,VALID,23.2702,VALID,115,VALID,0.761328,
2012-02-18, 03:20:04,VALID,998.32,VALID,0,VALID,91.4868,VALID,0,VALID,23.311,VALID,127,VALID,0.927344,
2012-02-18, 03:21:04,VALID,998.349,VALID,0,VALID,91.5097,VALID,0,VALID,23.35,VALID,123,VALID,0.894922,
2012-02-18, 03:22:04,VALID,998.331,VALID,0,VALID,91.502,VALID,0,VALID,23.3287,VALID,131,VALID,0.9,
2012-02-18, 03:23:04,VALID,998.317,VALID,0,VALID,91.4715,VALID,0,VALID,23.3287,VALID,118,VALID,0.944531,
2012-02-18, 03:24:04,VALID,998.334,VALID,0,VALID,91.6546,VALID,0,VALID,23.3287,VALID,110,VALID,0.858594,
2012-02-18, 03:25:04,VALID,998.341,VALID,0,VALID,91.708,VALID,0,VALID,23.35,VALID,93,VALID,1.53203,
2012-02-18, 03:26:04,VALID,998.346,VALID,0,VALID,91.7691,VALID,0,VALID,23.3305,VALID,92,VALID,1.74688,
2012-02-18, 03:27:04,VALID,998.342,VALID,0,VALID,91.7767,VALID,0,VALID,23.311,VALID,88,VALID,1.35352,
2012-02-18, 03:28:04,VALID,998.307,VALID,0,VALID,91.5402,VALID,0,VALID,23.2702,VALID,84,VALID,1.24141,
2012-02-18, 03:29:04,VALID,998.316,VALID,0,VALID,91.502,VALID,0,VALID,23.2897,VALID,56,VALID,0.623828,
2012-02-18, 03:30:04,VALID,998.326,VALID,0,VALID,91.5478,VALID,0,VALID,23.2719,VALID,284,VALID,0.716797,
2012-02-18, 03:31:04,VALID,998.291,VALID,0,VALID,91.7004,VALID,0,VALID,23.2915,VALID,282,VALID,0.781641,
2012-02-18, 03:32:04,VALID,998.308,VALID,0,VALID,91.8454,VALID,0,VALID,23.2719,VALID,287,VALID,1.40898,
2012-02-18, 03:33:04,VALID,998.289,VALID,0,VALID,91.8988,VALID,0,VALID,23.2915,VALID,306,VALID,0.772656,
2012-02-18, 03:34:04,VALID,998.263,VALID,0,VALID,91.8835,VALID,0,VALID,23.2719,VALID,277,VALID,0.562109,
2012-02-18, 03:35:04,VALID,998.233,VALID,0,VALID,91.5936,VALID,0,VALID,23.2507,VALID,259,VALID,0.388281,
2012-02-18, 03:36:04,VALID,998.21,VALID,0,VALID,91.6699,VALID,0,VALID,23.2702,VALID,259,VALID,0,
2012-02-18, 03:37:04,VALID,998.19,VALID,0,VALID,91.6317,VALID,0,VALID,23.2915,VALID,259,VALID,0,
2012-02-18, 03:38:04,VALID,998.144,VALID,0,VALID,91.4028,VALID,0,VALID,23.2702,VALID,258,VALID,0,
2012-02-18, 03:39:04,VALID,998.116,VALID,0,VALID,91.0443,VALID,0,VALID,23.2702,VALID,159,VALID,0.318359,
2012-02-18, 03:40:04,VALID,998.06,VALID,0,VALID,90.8001,VALID,0,VALID,23.311,VALID,160,VALID,0,
2012-02-18, 03:41:04,VALID,998.062,VALID,0,VALID,90.9069,VALID,0,VALID,23.3305,VALID,198,VALID,0.577344,
2012-02-18, 03:42:04,VALID,998.045,VALID,0,VALID,91.0748,VALID,0,VALID,23.3287,VALID,157,VALID,0.769141,
2012-02-18, 03:43:04,VALID,998.03,VALID,0,VALID,91.0671,VALID,0,VALID,23.3092,VALID,150,VALID,0.829687,
2012-02-18, 03:44:04,VALID,998.004,VALID,0,VALID,91.0748,VALID,0,VALID,23.3287,VALID,150,VALID,0.746094,
2012-02-18, 03:45:04,VALID,998.002,VALID,0,VALID,91.1434,VALID,0,VALID,23.3482,VALID,150,VALID,0.84375,
2012-02-18, 03:46:04,VALID,997.991,VALID,0,VALID,91.2274,VALID,0,VALID,23.3695,VALID,150,VALID,0.814453,
2012-02-18, 03:47:04,VALID,997.959,VALID,0,VALID,91.2655,VALID,0,VALID,23.3695,VALID,121,VALID,1.1,
2012-02-18, 03:48:04,VALID,997.944,VALID,0,VALID,91.2503,VALID,0,VALID,23.389,VALID,106,VALID,1.15391,
2012-02-18, 03:49:04,VALID,997.978,VALID,0,VALID,91.3418,VALID,0,VALID,23.3482,VALID,89,VALID,0.961328,